Time,TemperatureF,DewpointF,PressureIn,WindDirection,WindDirectionDegrees,WindSpeedMPH,WindSpeedGustMPH,Humidity,HourlyPrecipIn,Conditions,Clouds,dailyrainin,SoftwareType,DateUTC
2013-06-10 00:03:00,66.0,65.0,29.99,SE,138,0.0,0.0,96,0.00,,,0.01,,2013-06-10 04:03:00,
2013-06-10 00:13:00,66.0,65.0,29.99,SE,138,0.0,0.0,96,0.00,,,0.01,,2013-06-10 04:13:00,
2013-06-10 00:23:00,66.0,65.0,30.00,SE,138,0.0,0.0,96,0.00,,,0.01,,2013-06-10 04:23:00,
2013-06-10 00:33:00,66.0,65.0,29.99,SE,138,0.0,2.0,96,0.00,,,0.01,,2013-06-10 04:33:00,
2013-06-10 00:42:00,66.0,65.0,29.99,SE,138,0.0,2.0,96,0.00,,,0.01,,2013-06-10 04:42:00,
2013-06-10 00:53:00,66.0,65.0,29.99,SE,138,0.0,1.0,96,0.00,,,0.01,,2013-06-10 04:53:00,
2013-06-10 01:02:00,66.0,65.0,29.99,SE,138,0.0,0.0,96,0.00,,,0.01,,2013-06-10 05:02:00,
2013-06-10 01:12:00,66.0,65.0,29.99,SE,138,0.0,0.0,96,0.00,,,0.01,,2013-06-10 05:12:00,
2013-06-10 01:22:00,66.0,65.0,29.99,SE,138,0.0,2.0,96,0.00,,,0.01,,2013-06-10 05:22:00,
2013-06-10 01:32:00,66.0,65.0,29.98,SE,138,0.0,2.0,96,0.00,,,0.01,,2013-06-10 05:32:00,
2013-06-10 01:42:00,66.0,65.0,29.98,SE,138,0.0,2.0,96,0.00,,,0.01,,2013-06-10 05:42:00,
2013-06-10 01:52:00,65.0,64.0,29.98,SE,138,0.0,2.0,96,0.00,,,0.01,,2013-06-10 05:52:00,
2013-06-10 02:02:00,65.0,64.0,29.97,SE,138,0.0,1.0,96,0.00,,,0.01,,2013-06-10 06:02:00,
2013-06-10 02:12:00,65.0,64.0,29.97,SE,138,0.0,1.0,96,0.00,,,0.01,,2013-06-10 06:12:00,
2013-06-10 02:22:00,65.0,64.0,29.97,SE,138,0.0,2.0,96,0.00,,,0.01,,2013-06-10 06:22:00,
2013-06-10 02:32:00,65.0,64.0,29.96,SE,138,0.0,1.0,96,0.00,,,0.01,,2013-06-10 06:32:00,
2013-06-10 02:42:00,65.0,64.0,29.96,SE,138,0.0,1.0,96,0.00,,,0.01,,2013-06-10 06:42:00,
2013-06-10 02:53:00,65.0,64.0,29.96,SE,138,0.0,2.0,96,0.00,,,0.01,,2013-06-10 06:53:00,
2013-06-10 03:02:00,65.0,64.0,29.95,SE,135,0.0,2.0,96,0.00,,,0.01,,2013-06-10 07:02:00,
2013-06-10 03:12:00,65.0,64.0,29.95,SE,135,0.0,2.0,96,0.00,,,0.01,,2013-06-10 07:12:00,
2013-06-10 03:22:00,65.0,64.0,29.95,SE,135,0.0,3.0,96,0.00,,,0.01,,2013-06-10 07:22:00,
2013-06-10 03:32:00,65.0,64.0,29.94,SE,135,0.0,2.0,97,0.00,,,0.01,,2013-06-10 07:32:00,
2013-06-10 03:42:00,65.0,64.0,29.94,SE,135,0.0,2.0,97,0.00,,,0.01,,2013-06-10 07:42:00,
2013-06-10 03:52:00,65.0,64.0,29.93,SE,135,0.0,2.0,97,0.00,,,0.01,,2013-06-10 07:52:00,
2013-06-10 04:02:00,65.0,64.0,29.93,SE,135,0.0,0.0,97,0.00,,,0.01,,2013-06-10 08:02:00,
2013-06-10 04:12:00,65.0,64.0,29.93,SE,135,0.0,0.0,97,0.00,,,0.01,,2013-06-10 08:12:00,
2013-06-10 04:22:00,65.0,64.0,29.93,SE,135,0.0,1.0,97,0.00,,,0.01,,2013-06-10 08:22:00,
2013-06-10 04:32:00,65.0,64.0,29.92,SE,135,0.0,2.0,97,0.00,,,0.01,,2013-06-10 08:32:00,
2013-06-10 04:42:00,65.0,64.0,29.92,SE,135,0.0,2.0,97,0.00,,,0.01,,2013-06-10 08:42:00,
2013-06-10 04:52:00,65.0,64.0,29.92,SE,135,0.0,2.0,97,0.00,,,0.01,,2013-06-10 08:52:00,
2013-06-10 05:02:00,65.0,64.0,29.91,SE,135,0.0,4.0,97,0.00,,,0.01,,2013-06-10 09:02:00,
2013-06-10 05:12:00,65.0,64.0,29.91,SE,135,0.0,4.0,97,0.00,,,0.01,,2013-06-10 09:12:00,
2013-06-10 05:22:00,65.0,64.0,29.91,SE,135,0.0,4.0,97,0.00,,,0.01,,2013-06-10 09:22:00,
2013-06-10 05:32:00,65.0,64.0,29.91,SE,135,0.0,1.0,97,0.00,,,0.01,,2013-06-10 09:32:00,
2013-06-10 05:42:00,65.0,64.0,29.91,SE,135,0.0,1.0,97,0.00,,,0.01,,2013-06-10 09:42:00,
2013-06-10 05:53:00,65.0,64.0,29.91,SE,135,0.0,1.0,97,0.00,,,0.01,,2013-06-10 09:53:00,
2013-06-10 06:03:00,65.0,64.0,29.90,SE,128,1.0,3.0,98,0.00,,,0.01,,2013-06-10 10:03:00,
2013-06-10 06:13:00,65.0,64.0,29.90,SE,128,1.0,3.0,98,0.00,,,0.01,,2013-06-10 10:13:00,
2013-06-10 06:23:00,65.0,64.0,29.90,SE,128,1.0,3.0,98,0.00,,,0.01,,2013-06-10 10:23:00,
2013-06-10 06:33:00,65.0,64.0,29.90,East,94,0.0,3.0,98,0.00,,,0.00,,2013-06-10 10:33:00,
2013-06-10 06:42:00,65.0,64.0,29.90,East,94,0.0,3.0,98,0.00,,,0.00,,2013-06-10 10:42:00,
2013-06-10 06:52:00,65.0,64.0,29.90,East,94,0.0,3.0,98,0.00,,,0.00,,2013-06-10 10:52:00,
2013-06-10 07:03:00,65.0,64.0,29.90,East,94,0.0,3.0,98,0.00,,,0.00,,2013-06-10 11:03:00,
2013-06-10 07:12:00,65.0,64.0,29.90,East,94,0.0,3.0,98,0.00,,,0.00,,2013-06-10 11:12:00,
2013-06-10 07:22:00,65.0,64.0,29.89,SSE,165,0.0,3.0,98,0.00,,,0.00,,2013-06-10 11:22:00,
2013-06-10 07:32:00,65.0,64.0,29.90,South,190,1.0,4.0,98,0.00,,,0.00,,2013-06-10 11:32:00,
2013-06-10 07:42:00,65.0,64.0,29.90,South,190,1.0,4.0,98,0.00,,,0.00,,2013-06-10 11:42:00,
2013-06-10 07:52:00,66.0,65.0,29.90,SSE,166,0.0,4.0,98,0.00,,,0.00,,2013-06-10 11:52:00,
2013-06-10 08:02:00,66.0,65.0,29.90,South,189,2.0,6.0,98,0.00,,,0.00,,2013-06-10 12:02:00,
2013-06-10 08:12:00,66.0,65.0,29.90,South,189,2.0,6.0,98,0.00,,,0.00,,2013-06-10 12:12:00,
2013-06-10 08:22:00,66.0,65.0,29.90,West,273,2.0,5.0,98,0.00,,,0.00,,2013-06-10 12:22:00,
2013-06-10 08:32:00,66.0,65.0,29.90,SW,224,0.0,2.0,98,0.00,,,0.00,,2013-06-10 12:32:00,
2013-06-10 08:42:00,66.0,65.0,29.90,SW,224,0.0,2.0,98,0.00,,,0.00,,2013-06-10 12:42:00,
2013-06-10 08:52:00,66.0,65.0,29.89,SSW,211,0.0,3.0,98,0.00,,,0.00,,2013-06-10 12:52:00,
2013-06-10 09:02:00,66.0,65.0,29.89,SSW,211,0.0,1.0,98,0.00,,,0.00,,2013-06-10 13:02:00,
2013-06-10 09:12:00,66.0,65.0,29.89,SSW,211,0.0,1.0,98,0.00,,,0.00,,2013-06-10 13:12:00,
2013-06-10 09:22:00,67.0,66.0,29.89,SSW,197,0.0,2.0,98,0.00,,,0.00,,2013-06-10 13:22:00,
2013-06-10 09:32:00,67.0,66.0,29.89,SSW,193,0.0,4.0,98,0.00,,,0.00,,2013-06-10 13:32:00,
2013-06-10 09:42:00,67.0,66.0,29.89,SSW,193,0.0,4.0,98,0.00,,,0.00,,2013-06-10 13:42:00,
2013-06-10 09:52:00,67.0,66.0,29.89,West,262,1.0,8.0,98,0.00,,,0.00,,2013-06-10 13:52:00,
2013-06-10 10:02:00,68.0,67.0,29.88,WSW,241,0.0,6.0,97,0.00,,,0.00,,2013-06-10 14:02:00,
2013-06-10 10:12:00,68.0,67.0,29.88,WSW,241,0.0,6.0,97,0.00,,,0.00,,2013-06-10 14:12:00,
2013-06-10 10:22:00,68.0,67.0,29.88,SW,223,0.0,8.0,95,0.00,,,0.00,,2013-06-10 14:22:00,
2013-06-10 10:32:00,69.0,67.0,29.88,WSW,242,1.0,7.0,93,0.00,,,0.00,,2013-06-10 14:32:00,
2013-06-10 10:42:00,69.0,67.0,29.88,WSW,242,1.0,7.0,93,0.00,,,0.00,,2013-06-10 14:42:00,
2013-06-10 10:52:00,69.0,67.0,29.88,South,176,1.0,6.0,92,0.00,,,0.00,,2013-06-10 14:52:00,
2013-06-10 11:03:00,69.0,66.0,29.87,South,173,3.0,6.0,91,0.00,,,0.00,,2013-06-10 15:03:00,
2013-06-10 11:13:00,69.0,66.0,29.87,South,173,3.0,6.0,91,0.00,,,0.00,,2013-06-10 15:13:00,
2013-06-10 11:22:00,71.0,67.0,29.87,NW,309,3.0,8.0,88,0.00,,,0.00,,2013-06-10 15:22:00,
2013-06-10 11:33:00,71.0,67.0,29.87,West,274,5.0,11.0,86,0.00,,,0.00,,2013-06-10 15:33:00,
2013-06-10 11:43:00,71.0,67.0,29.87,West,274,5.0,11.0,86,0.00,,,0.00,,2013-06-10 15:43:00,
2013-06-10 11:53:00,72.0,67.0,29.87,West,271,3.0,11.0,84,0.00,,,0.00,,2013-06-10 15:53:00,
2013-06-10 12:03:00,72.0,67.0,29.87,WSW,244,3.0,11.0,83,0.00,,,0.00,,2013-06-10 16:03:00,
2013-06-10 12:13:00,72.0,67.0,29.87,WSW,244,3.0,11.0,83,0.00,,,0.00,,2013-06-10 16:13:00,
2013-06-10 12:23:00,73.0,66.0,29.86,West,278,7.0,14.0,78,0.00,,,0.00,,2013-06-10 16:23:00,
2013-06-10 12:33:00,74.0,66.0,29.85,SW,225,7.0,14.0,76,0.00,,,0.00,,2013-06-10 16:33:00,
2013-06-10 12:43:00,74.0,66.0,29.85,SW,225,7.0,14.0,76,0.00,,,0.00,,2013-06-10 16:43:00,
2013-06-10 12:52:00,76.0,66.0,29.84,ESE,121,6.0,15.0,72,0.00,,,0.00,,2013-06-10 16:52:00,
2013-06-10 13:03:00,76.0,66.0,29.84,ESE,121,6.0,15.0,72,0.00,,,0.00,,2013-06-10 17:03:00,
2013-06-10 13:14:00,76.0,66.0,29.84,ESE,121,6.0,15.0,72,0.00,,,0.00,,2013-06-10 17:14:00,
2013-06-10 13:27:00,76.0,66.0,29.83,WSW,248,7.0,12.0,72,0.00,,,0.00,,2013-06-10 17:27:00,
2013-06-10 13:38:00,77.0,66.0,29.82,SW,236,5.0,12.0,69,0.00,,,0.00,,2013-06-10 17:38:00,
2013-06-10 13:48:00,78.0,67.0,29.80,SSW,197,3.0,13.0,69,0.00,,,0.00,,2013-06-10 17:48:00,
2013-06-10 13:57:00,78.0,67.0,29.80,SSW,197,3.0,13.0,69,0.00,,,0.00,,2013-06-10 17:57:00,
2013-06-10 14:08:00,77.0,66.0,29.80,SSW,198,3.0,11.0,69,0.00,,,0.00,,2013-06-10 18:08:00,
2013-06-10 14:14:00,77.0,66.0,29.80,SSW,198,3.0,11.0,69,0.00,,,0.00,,2013-06-10 18:14:00,
2013-06-10 14:25:00,76.0,65.0,29.79,SW,231,4.0,10.0,70,0.00,,,0.00,,2013-06-10 18:25:00,
2013-06-10 14:35:00,76.0,66.0,29.82,West,263,11.0,16.0,72,0.00,,,0.00,,2013-06-10 18:35:00,
2013-06-10 14:48:00,76.0,66.0,29.82,West,263,11.0,16.0,72,0.00,,,0.00,,2013-06-10 18:48:00,
2013-06-10 14:55:00,67.0,64.0,29.83,WNW,282,7.0,21.0,90,0.01,,,0.01,,2013-06-10 18:55:00,
2013-06-10 15:03:00,66.0,65.0,29.81,SW,235,1.0,4.0,95,0.01,,,0.01,,2013-06-10 19:03:00,
2013-06-10 15:13:00,66.0,65.0,29.81,SW,235,1.0,4.0,95,0.01,,,0.01,,2013-06-10 19:13:00,
2013-06-10 15:22:00,67.0,66.0,29.81,West,263,2.0,6.0,97,0.01,,,0.01,,2013-06-10 19:22:00,
2013-06-10 15:33:00,68.0,67.0,29.80,WNW,295,1.0,4.0,97,0.01,,,0.01,,2013-06-10 19:33:00,
2013-06-10 15:43:00,68.0,67.0,29.80,WNW,295,1.0,4.0,97,0.01,,,0.01,,2013-06-10 19:43:00,
2013-06-10 15:53:00,68.0,67.0,29.80,West,281,5.0,8.0,97,0.00,,,0.01,,2013-06-10 19:53:00,
2013-06-10 16:03:00,70.0,69.0,29.79,WNW,298,4.0,8.0,96,0.00,,,0.01,,2013-06-10 20:03:00,
2013-06-10 16:13:00,70.0,69.0,29.79,WNW,298,4.0,8.0,96,0.00,,,0.01,,2013-06-10 20:13:00,
2013-06-10 16:23:00,70.0,68.0,29.79,WSW,242,3.0,10.0,95,0.00,,,0.01,,2013-06-10 20:23:00,
2013-06-10 16:32:00,71.0,69.0,29.78,West,269,0.0,6.0,94,0.00,,,0.01,,2013-06-10 20:32:00,
2013-06-10 16:43:00,71.0,69.0,29.78,West,269,0.0,6.0,94,0.00,,,0.01,,2013-06-10 20:43:00,
2013-06-10 16:52:00,71.0,69.0,29.78,South,181,2.0,6.0,92,0.00,,,0.01,,2013-06-10 20:52:00,
2013-06-10 17:02:00,70.0,67.0,29.77,WNW,296,3.0,7.0,90,0.00,,,0.01,,2013-06-10 21:02:00,
2013-06-10 17:12:00,70.0,67.0,29.77,WNW,296,3.0,7.0,90,0.00,,,0.01,,2013-06-10 21:12:00,
2013-06-10 17:23:00,70.0,68.0,29.77,WSW,242,2.0,8.0,92,0.00,,,0.01,,2013-06-10 21:23:00,
2013-06-10 17:34:00,71.0,69.0,29.78,West,268,2.0,5.0,92,0.00,,,0.01,,2013-06-10 21:34:00,
2013-06-10 17:43:00,71.0,69.0,29.78,West,268,2.0,5.0,92,0.00,,,0.01,,2013-06-10 21:43:00,
2013-06-10 17:53:00,72.0,68.0,29.78,WNW,290,5.0,8.0,87,0.00,,,0.01,,2013-06-10 21:53:00,
2013-06-10 18:03:00,72.0,67.0,29.78,WSW,246,3.0,6.0,85,0.00,,,0.01,,2013-06-10 22:03:00,
2013-06-10 18:13:00,72.0,67.0,29.78,WSW,246,3.0,6.0,85,0.00,,,0.01,,2013-06-10 22:13:00,
2013-06-10 18:23:00,72.0,66.0,29.78,West,279,3.0,11.0,82,0.00,,,0.01,,2013-06-10 22:23:00,
2013-06-10 18:33:00,71.0,65.0,29.78,West,270,6.0,11.0,81,0.00,,,0.01,,2013-06-10 22:33:00,
2013-06-10 18:42:00,71.0,65.0,29.78,West,270,6.0,11.0,81,0.00,,,0.01,,2013-06-10 22:42:00,
2013-06-10 18:52:00,71.0,65.0,29.78,WSW,248,4.0,8.0,80,0.00,,,0.01,,2013-06-10 22:52:00,
2013-06-10 19:03:00,71.0,64.0,29.78,West,277,3.0,7.0,79,0.00,,,0.01,,2013-06-10 23:03:00,
2013-06-10 19:12:00,71.0,64.0,29.78,West,277,3.0,7.0,79,0.00,,,0.01,,2013-06-10 23:12:00,
2013-06-10 19:22:00,71.0,64.0,29.78,West,275,4.0,8.0,78,0.00,,,0.01,,2013-06-10 23:22:00,
2013-06-10 19:32:00,71.0,64.0,29.79,West,263,3.0,6.0,79,0.00,,,0.01,,2013-06-10 23:32:00,
2013-06-10 19:42:00,71.0,64.0,29.79,West,263,3.0,6.0,79,0.00,,,0.01,,2013-06-10 23:42:00,
2013-06-10 19:52:00,70.0,64.0,29.80,West,277,4.0,7.0,80,0.00,,,0.01,,2013-06-10 23:52:00,
2013-06-10 20:02:00,70.0,64.0,29.80,West,275,3.0,6.0,80,0.00,,,0.01,,2013-06-11 00:02:00,
2013-06-10 20:13:00,71.0,65.0,29.80,West,273,4.0,9.0,80,0.00,,,0.01,,2013-06-11 00:13:00,
2013-06-10 20:22:00,71.0,65.0,29.80,West,273,4.0,9.0,80,0.00,,,0.01,,2013-06-11 00:22:00,
2013-06-10 20:32:00,70.0,64.0,29.80,WNW,286,3.0,6.0,80,0.00,,,0.01,,2013-06-11 00:32:00,
2013-06-10 20:42:00,70.0,64.0,29.80,WNW,286,3.0,6.0,80,0.00,,,0.01,,2013-06-11 00:42:00,
2013-06-10 20:52:00,70.0,64.0,29.80,West,280,2.0,4.0,82,0.00,,,0.01,,2013-06-11 00:52:00,
2013-06-10 21:02:00,69.0,63.0,29.81,West,271,2.0,5.0,81,0.00,,,0.01,,2013-06-11 01:02:00,
2013-06-10 21:12:00,69.0,63.0,29.81,West,271,2.0,5.0,81,0.00,,,0.01,,2013-06-11 01:12:00,
2013-06-10 21:22:00,69.0,63.0,29.81,West,273,1.0,3.0,82,0.00,,,0.01,,2013-06-11 01:22:00,
2013-06-10 21:33:00,68.0,63.0,29.81,West,273,0.0,3.0,83,0.00,,,0.01,,2013-06-11 01:33:00,
2013-06-10 21:42:00,68.0,63.0,29.81,West,273,0.0,3.0,83,0.00,,,0.01,,2013-06-11 01:42:00,
2013-06-10 21:52:00,67.0,62.0,29.82,WSW,247,0.0,4.0,84,0.00,,,0.01,,2013-06-11 01:52:00,
2013-06-10 22:03:00,67.0,62.0,29.83,West,271,0.0,3.0,85,0.00,,,0.01,,2013-06-11 02:03:00,
2013-06-10 22:12:00,67.0,62.0,29.83,West,271,0.0,3.0,85,0.00,,,0.01,,2013-06-11 02:12:00,
2013-06-10 22:22:00,66.0,62.0,29.84,West,271,0.0,2.0,86,0.00,,,0.01,,2013-06-11 02:22:00,
2013-06-10 22:32:00,66.0,62.0,29.84,West,271,0.0,2.0,87,0.00,,,0.01,,2013-06-11 02:32:00,
2013-06-10 22:42:00,65.0,61.0,29.85,West,267,0.0,5.0,88,0.00,,,0.01,,2013-06-11 02:42:00,
2013-06-10 22:52:00,65.0,61.0,29.85,West,267,0.0,5.0,88,0.00,,,0.01,,2013-06-11 02:52:00,
2013-06-10 23:03:00,65.0,61.0,29.85,WNW,288,0.0,4.0,88,0.00,,,0.01,,2013-06-11 03:03:00,
2013-06-10 23:13:00,65.0,61.0,29.85,WNW,288,0.0,4.0,88,0.00,,,0.01,,2013-06-11 03:13:00,
2013-06-10 23:22:00,65.0,61.0,29.85,WNW,288,0.0,3.0,88,0.00,,,0.01,,2013-06-11 03:22:00,
2013-06-10 23:32:00,65.0,61.0,29.84,WNW,288,0.0,2.0,88,0.00,,,0.01,,2013-06-11 03:32:00,
2013-06-10 23:43:00,64.0,61.0,29.85,WNW,288,0.0,1.0,89,0.00,,,0.01,,2013-06-11 03:43:00,
2013-06-10 23:53:00,64.0,61.0,29.85,WNW,288,0.0,1.0,89,0.00,,,0.01,,2013-06-11 03:53:00,